STARLINK-3766, 52296

Orbit data source: Space-Track

STARLINK-3766, 52296 is a payload satellite owned by SpaceX/Seattle (US) in LEO that was launched on Thu, 21 Apr 2022 UTC via an FALCON 9 launch vehicle from the Air Force Eastern Test Range (AFETR). Payload-class satellites include a variety of spacecraft equipped with specific instruments for various scientific and technological missions. These include communications satellites like Starlink; space stations such as the ISS; scientific satellites like the Hubble; Earth observation satellites from companies like Planet Labs, Umbra, and HawkEye 360; GPS; miniature CubeSats for education and research; and military/defense satellites.

Loading next visibility...
Identifier
52296, 2022-041AM
Orbit
LEO
Country
Flag of USUS
Related business
Manufacturer
SpaceX/Seattle
Mission
Operational Commercial Communications
Bus & Motor
STARLINK, Unknown motor
Mass
297 kg wet, ~275 kg dry
Launch date (UTC)
2022-04-21 (4 years ago)
Launch vehicle
FALCON 9
Launch site
Air Force Eastern Test Range (AFETR)
Object type
Payload
Rocket body
Debris
Shape & HBR
Box + 1 Pan, 10.1 m
Radar Cross Section
11.087 m², Large (>1 m²)

Expand to show TLE details & history
Last TLE update: 14 hours ago

TLE from 14 hours ago
0 STARLINK-3766
1 52296U 22041AM  26263.22721453  .00000814  00000-0  35218-4 0  9994
2 52296  53.1594 292.6469 0001301  63.1270 296.9865 15.34394771244059
Epoch: 2026-09-20T05:27Z
TLE epoch observation values (Epoch: 2026-09-20T05:27:11.335Z)
Latitude
-0.00005°
Longitude
-148.27479°
Altitude
463.216 km
Speed
7.636 km/s
True Right ascension
19h 30m 35s
True Declination
0° 00' 00"
Sunlit
Object was in full shadow at epoch
Visualization orbit readout
Latitude
Unknown
Longitude
Unknown
Altitude
Unknown
Speed
Unknown
Apparent Right ascension
Unknown
Apparent Declination
Unknown
Sunlit
N/A
Visualization observer readout
Local Sidereal Time
12:12:17
Azimuth
Unknown
Elevation
Unknown
Doppler factor
Unknown
Orbital elements
Apogee altitude
463.866 km
Perigee altitude
462.086 km
Semi-major axis
6,841.113 km
Eccentricity
0.00013
Inclination
53.1594°
RAAN
292.6469°
Arg. of periapsis
63.127°
True anomaly
296.97321°
Mean anomaly
296.9865°
Eccentric anomaly
296.97986°
Mean motion
3.83577 °/min
Orbital period
93.85 mins
BSTAR
0.000035218
Loading maneuver chart data...
Computing Atmospheric mass density...
Loading historical data...
Loading historical data...
Loading historical data...
Loading historical data...
Loading historical data...
Loading historical data...
Loading historical data...

Documentation

Showing up to 5 results
|